Location: Decatur Area Astronomy Club
(40.0275°N, 88.7810°W)
Time: 16:59:20
(UTC-05:00)

Amateur Radio Satellites - All Passes

Search period start: 24 June 2016 16:29
Search period end: 25 June 2016 16:29
Location: Decatur Area Astronomy Club, 40.0275°N, 88.7810°W

Satellite Date Start Highest point End Downlink Frequencies (MHz)
Time Altitude Azimuth
SO-50 24 Jun 16:33:33 16:37:56 34° 114° (ESE) 16:42:20 436.795
ITAMSAT 1 24 Jun 16:37:06 16:38:50 12° 271° (W) 16:40:34 435.822/435.867
HORYU 2 24 Jun 16:50:08 16:54:31 71° 75° (ENE) 16:58:57 437.375
BRITE-PL 24 Jun 16:57:42 17:00:50 17° 66° (ENE) 17:03:51 437.365/2234.400
CUBESAT XI-V 24 Jun 17:01:21 17:02:32 11° 89° (E) 17:03:43 437.345
CUTE-I 24 Jun 17:02:40 17:05:49 16° 61° (ENE) 17:08:58 437.470
STARS 24 Jun 17:12:11 17:16:36 76° 102° (ESE) 17:21:00 437.465
LilacSat-2 24 Jun 17:18:09 17:19:46 12° 65° (ENE) 17:21:22 437.200
AIST 1 24 Jun 17:20:41 17:24:34 33° 91° (E) 17:28:28
MOZHAYETS 4 24 Jun 17:20:44 17:25:14 50° 287° (WNW) 17:29:42
NOAA 18 24 Jun 17:22:11 17:26:43 28° 65° (ENE) 17:31:17 137.9125
ISS 24 Jun 17:31:52 17:35:04 52° 222° (SW) 17:38:15 145.825
GONETS M04 24 Jun 17:35:59 17:41:17 18° 78° (ENE) 17:46:34
RS-15 24 Jun 17:39:45 17:48:10 21° 0° (N) 17:56:45 29.354- 29.394
NOAA 15 24 Jun 17:43:43 17:48:50 51° 71° (ENE) 17:53:58 137.62
AO-7 24 Jun 17:48:47 17:53:11 15° 271° (W) 17:57:36 29.400- 29.500
GOMX 1 24 Jun 17:54:06 17:57:56 25° 69° (ENE) 18:01:34 467.674
Cubesat XI-IV 24 Jun 18:04:11 18:09:23 56° 72° (ENE) 18:14:38 437.490
KKS-1 24 Jun 18:05:11 18:07:54 16° 296° (WNW) 18:10:38 437.445
SO-50 24 Jun 18:14:03 18:18:25 31° 311° (NW) 18:22:47 436.795
HO-68 24 Jun 18:18:01 18:21:58 16° 53° (NE) 18:25:55 435.675
BRITE-PL 24 Jun 18:33:43 18:38:56 59° 260° (W) 18:43:46 437.365/2234.400
CUBESAT XI-V 24 Jun 18:35:46 18:40:24 69° 285° (WNW) 18:44:57 437.345
CUTE-I 24 Jun 18:39:56 18:45:15 69° 258° (WSW) 18:50:37 437.470
Cosmos 2499 24 Jun 18:40:12 18:47:08 32° 83° (E) 18:54:27 435.465 / 435.565
LilacSat-2 24 Jun 18:50:03 18:53:39 44° 261° (W) 18:57:18 437.200
STARS 24 Jun 18:51:24 18:52:20 11° 299° (WNW) 18:53:15 437.465
DANDE 24 Jun 18:56:29 19:00:22 19° 62° (ENE) 19:03:35 436.750
AIST 1 24 Jun 18:59:07 19:02:14 19° 287° (WNW) 19:05:22
NOAA 18 24 Jun 19:02:07 19:07:11 39° 262° (W) 19:12:18 137.9125
CINEMA 3 24 Jun 19:09:30 19:12:22 18° 67° (ENE) 19:15:14 145.822/145.860
CUSAT 1 24 Jun 19:15:35 19:19:43 65° 78° (ENE) 19:22:54 437.405
DOVE 4 24 Jun 19:16:31 19:20:58 83° 77° (ENE) 19:25:15 437.250
NOAA 15 24 Jun 19:25:09 19:28:52 19° 267° (W) 19:32:37 137.62
GONETS M04 24 Jun 19:28:08 19:36:52 87° 276° (W) 19:45:37
GOMX 1 24 Jun 19:31:38 19:35:54 31° 263° (W) 19:39:56 467.674
AAUSAT CUBESAT 2 24 Jun 19:34:19 19:36:10 13° 64° (ENE) 19:38:01 437.432
CUBEBUG 2 24 Jun 19:38:36 19:39:57 11° 63° (ENE) 19:41:18 437.445
CANX-2 24 Jun 19:42:02 19:46:05 43° 73° (ENE) 19:50:10 2200.000
STRAND 1 24 Jun 19:44:45 19:49:36 40° 98° (E) 19:54:25 437.568
Cubesat XI-IV 24 Jun 19:46:15 19:49:48 18° 268° (W) 19:53:21 437.490
AUBIESAT-1 24 Jun 19:51:56 19:53:42 14° 62° (ENE) 19:55:27 437.475
RS-15 24 Jun 19:55:06 20:06:01 35° 35° (NE) 20:16:55 29.354- 29.394
HO-68 24 Jun 20:01:26 20:08:34 81° 72° (ENE) 20:15:46 435.675
COMPASS 1 24 Jun 20:01:43 20:05:27 31° 70° (ENE) 20:09:12 437.405
CUTE 1.7 + AOD 2 24 Jun 20:02:44 20:06:57 66° 75° (ENE) 20:11:13 437.475
SEEDS 24 Jun 20:14:59 20:19:10 65° 75° (ENE) 20:23:24 437.485
ZACube-1 24 Jun 20:23:10 20:25:47 16° 65° (ENE) 20:28:27 437.345
M-CUBED/EXP-1 PRIME 24 Jun 20:25:45 20:28:57 47° 69° (ENE) 20:32:06 437.505
PRISM 24 Jun 20:27:09 20:29:20 14° 92° (E) 20:31:30 437.425
Cosmos 2499 24 Jun 20:31:51 20:39:46 54° 284° (WNW) 20:48:17 435.465 / 435.565
UWE-3 24 Jun 20:32:50 20:36:29 31° 70° (ENE) 20:40:13 435.000/436.395/437.385
DANDE 24 Jun 20:38:36 20:43:40 40° 270° (W) 20:47:30 436.750
Oscar 11 24 Jun 20:40:37 20:44:19 28° 69° (ENE) 20:48:02 145.826/435.025
FUNcube-1 24 Jun 20:42:21 20:45:44 24° 68° (ENE) 20:49:11 145.935
CINEMA 3 24 Jun 20:45:28 20:49:17 34° 263° (W) 20:53:05 145.822/145.860
AAUSAT CUBESAT 2 24 Jun 21:07:02 21:11:09 56° 260° (W) 21:15:18 437.432
CUBEBUG 2 24 Jun 21:11:56 21:16:01 61° 260° (W) 21:20:11 437.445
CANX-2 24 Jun 21:19:37 21:22:09 15° 268° (W) 21:24:42 2200.000
STRAND 1 24 Jun 21:24:26 21:28:32 24° 294° (WNW) 21:32:37 437.568
AUBIESAT-1 24 Jun 21:25:01 21:27:59 29° 257° (WSW) 21:30:55 437.475
GONETS M04 24 Jun 21:29:38 21:35:01 17° 298° (WNW) 21:40:26
COMPASS 1 24 Jun 21:37:53 21:41:03 20° 266° (W) 21:44:13 437.405
HO-68 24 Jun 21:52:31 21:57:00 17° 269° (W) 22:01:32 435.675
SEEDS 24 Jun 21:55:13 21:55:17 10° 271° (W) 21:55:21 437.485
DELFI C3 24 Jun 21:55:28 21:59:30 90° 88° (E) 22:03:34 145.870
ZACube-1 24 Jun 21:57:48 22:01:44 41° 262° (W) 22:05:45 437.345
PRISM 24 Jun 22:00:58 22:04:51 43° 288° (WNW) 22:08:42 437.425
AO-85 24 Jun 22:03:30 22:08:20 33° 113° (ESE) 22:13:04 145.980
RS-15 24 Jun 22:07:44 22:20:09 86° 241° (WSW) 22:32:24 29.354- 29.394
UWE-3 24 Jun 22:09:55 22:13:00 20° 267° (W) 22:16:08 435.000/436.395/437.385
ANTELSAT 24 Jun 22:11:02 22:13:45 15° 92° (E) 22:16:30 437.575/2403.000
HUMSAT D 24 Jun 22:12:56 22:17:01 63° 75° (ENE) 22:21:11 437.325/437.525
Oscar 11 24 Jun 22:16:52 22:20:24 24° 265° (W) 22:23:58 145.826/435.025
FUNcube-1 24 Jun 22:18:24 22:21:53 26° 265° (W) 22:25:27 145.935
ESTCUBE 1 24 Jun 22:30:38 22:33:51 19° 66° (ENE) 22:37:04 437.505/2401.250
AISAT 24 Jun 22:52:36 22:55:56 21° 67° (ENE) 22:59:16 437.250
TIGRISAT 24 Jun 23:02:33 23:07:04 51° 100° (E) 23:11:36 435.000
UNISAT 6 24 Jun 23:06:08 23:10:43 60° 101° (E) 23:15:21 437.425
UKube-1 24 Jun 23:16:19 23:19:42 23° 67° (ENE) 23:23:05 .
SPROUT 24 Jun 23:26:38 23:29:39 19° 67° (ENE) 23:32:40 437.525
DX 1 24 Jun 23:27:17 23:31:17 37° 71° (ENE) 23:35:18 434.975-435.025
YUBILEINY 24 Jun 23:42:43 23:50:43 36° 72° (ENE) 23:58:38 435.215
50 SAT 24 Jun 23:43:30 23:47:12 81° 77° (ENE) 23:50:57 437.505
AO-85 24 Jun 23:43:46 23:48:47 37° 309° (NW) 23:53:39 145.980
ANTELSAT 24 Jun 23:46:14 23:50:43 52° 287° (WNW) 23:55:15 437.575/2403.000
Cosmos 2504 24 Jun 23:46:19 23:48:33 11° 55° (NE) 23:50:48 435.465 / 435.565
VELOX 1 24 Jun 23:47:20 23:51:45 80° 77° (ENE) 23:56:11 145.980
CUBEBUG 1 24 Jun 23:50:45 23:55:08 88° 257° (WSW) 23:59:30 437.445
ESTCUBE 1 25 Jun 00:06:05 00:10:21 40° 262° (W) 00:14:39 437.505/2401.250
NANOSAT C BR1 25 Jun 00:14:36 00:18:44 51° 100° (E) 00:22:52 145.865
QB50P1 25 Jun 00:15:02 00:19:13 55° 100° (E) 00:23:23 145.935-145.965
BUGSAT 1 25 Jun 00:16:25 00:19:35 21° 95° (E) 00:22:46 437.445
POPSAT HIP 1 25 Jun 00:17:48 00:22:01 58° 101° (E) 00:26:12 437.405
RS-15 25 Jun 00:22:28 00:30:52 22° 261° (W) 00:39:12 29.354- 29.394
AISAT 25 Jun 00:28:10 00:32:11 34° 262° (W) 00:36:13 437.250
QB50P2 25 Jun 00:28:58 00:33:15 86° 102° (ESE) 00:37:31 145.880/145.840
POLYITAN 1 25 Jun 00:31:34 00:35:52 88° 107° (ESE) 00:40:09 437.675
DUCHIFAT 1 25 Jun 00:37:13 00:41:28 89° 102° (ESE) 00:45:43 145.980
TIGRISAT 25 Jun 00:40:28 00:43:20 17° 295° (WNW) 00:46:14 435.000
UNISAT 6 25 Jun 00:44:28 00:46:57 15° 296° (WNW) 00:49:26 437.425
Cosmos 2491 25 Jun 00:49:33 00:57:50 49° 89° (E) 01:06:06 435.465 / 435.565
UKube-1 25 Jun 00:51:46 00:55:35 30° 263° (W) 00:59:24 .
SPROUT 25 Jun 01:01:26 01:05:20 35° 262° (W) 01:09:16 437.525
TISAT 1 25 Jun 01:01:26 01:05:30 55° 74° (ENE) 01:09:34 437.305
DX 1 25 Jun 01:04:32 01:07:35 19° 266° (W) 01:10:39 434.975-435.025
SWISSCUBE 25 Jun 01:04:59 01:07:37 15° 62° (ENE) 01:10:14 437.505
SO-50 25 Jun 01:05:39 01:09:38 27° 47° (NE) 01:13:31 436.795
JAS-2 25 Jun 01:09:20 01:14:45 40° 97° (E) 01:19:42 435.910
Oscar 19 25 Jun 01:16:03 01:19:15 16° 92° (E) 01:22:25 437.125/150
ITUPSAT 1 25 Jun 01:27:48 01:31:26 22° 65° (ENE) 01:35:05 437.325
BEESAT 25 Jun 01:29:30 01:33:13 23° 66° (ENE) 01:36:57 436.000
Cosmos 2504 25 Jun 01:35:21 01:44:08 58° 78° (ENE) 01:52:35 435.465 / 435.565
YUBILEINY 25 Jun 01:39:19 01:47:40 49° 271° (W) 01:56:01 435.215
BUGSAT 1 25 Jun 01:51:27 01:54:57 28° 290° (WNW) 01:58:28 437.445
NANOSAT C BR1 25 Jun 01:51:50 01:54:02 14° 296° (WNW) 01:56:13 145.865
QB50P1 25 Jun 01:52:31 01:54:31 13° 296° (WNW) 01:56:31 145.935-145.965
POPSAT HIP 1 25 Jun 01:55:28 01:57:18 13° 296° (WNW) 01:59:07 437.405
PCSat 25 Jun 02:31:00 02:35:41 31° 109° (ESE) 02:40:25 145.827
Gurwin Techsat 1B 25 Jun 02:37:22 02:42:28 43° 99° (E) 02:47:30 435.225
TISAT 1 25 Jun 02:40:06 02:41:29 11° 269° (W) 02:42:51 437.305
SWISSCUBE 25 Jun 02:40:08 02:44:52 62° 259° (WSW) 02:49:39 437.505
SO-50 25 Jun 02:45:56 02:50:11 36° 245° (WSW) 02:54:18 436.795
MOZHAYETS 4 25 Jun 02:46:50 02:49:23 15° 64° (ENE) 02:51:57
Cosmos 2491 25 Jun 02:46:57 02:54:49 36° 288° (WNW) 03:02:44 435.465 / 435.565
Oscar 19 25 Jun 02:53:53 02:58:54 56° 288° (WNW) 03:03:53 437.125/150
JAS-2 25 Jun 02:54:53 02:59:34 26° 297° (WNW) 03:03:56 435.910
ITUPSAT 1 25 Jun 03:04:30 03:08:59 40° 261° (W) 03:13:32 437.325
BEESAT 25 Jun 03:06:21 03:10:46 37° 262° (W) 03:15:13 436.000
ITAMSAT 1 25 Jun 03:07:32 03:12:06 29° 96° (E) 03:16:35 435.822/435.867
O/OREOS (USA 219) 25 Jun 03:16:03 03:20:12 37° 105° (ESE) 03:24:21 437.305
KKS-1 25 Jun 03:24:45 03:28:53 40° 71° (ENE) 03:33:02 437.445
Cosmos 2504 25 Jun 03:29:33 03:36:57 31° 277° (W) 03:44:09 435.465 / 435.565
BEESAT 3 25 Jun 03:48:10 03:52:04 78° 121° (ESE) 03:56:01 437.485
AO-7 25 Jun 03:53:45 04:01:16 35° 98° (E) 04:08:42 29.400- 29.500
CUBESAT XI-V 25 Jun 04:04:24 04:05:55 11° 61° (ENE) 04:07:26 437.345
STARS 25 Jun 04:07:57 04:12:14 60° 74° (ENE) 04:16:33 437.465
PCSat 25 Jun 04:13:58 04:18:58 37° 307° (NW) 04:24:00 145.827
BEESAT 2 25 Jun 04:17:48 04:21:45 89° 121° (ESE) 04:25:46 435.950
Gurwin Techsat 1B 25 Jun 04:17:57 04:22:07 24° 295° (WNW) 04:26:16 435.225
MOZHAYETS 4 25 Jun 04:21:31 04:26:03 57° 260° (W) 04:30:39
Cosmos 2499 25 Jun 04:34:54 04:37:05 11° 55° (NE) 04:39:13 435.465 / 435.565
HORYU 2 25 Jun 04:43:10 04:45:36 14° 92° (E) 04:48:01 437.375
ITAMSAT 1 25 Jun 04:46:52 04:51:31 33° 292° (WNW) 04:56:09 435.822/435.867
O/OREOS (USA 219) 25 Jun 04:56:18 04:59:43 21° 302° (WNW) 05:03:08 437.305
KKS-1 25 Jun 05:02:38 05:05:36 18° 267° (W) 05:08:36 437.445
AIST 1 25 Jun 05:05:12 05:09:28 84° 264° (W) 05:13:43
BEESAT 3 25 Jun 05:28:39 05:30:16 12° 318° (NW) 05:31:54 437.485
CUBESAT XI-V 25 Jun 05:37:55 05:42:37 79° 257° (WSW) 05:47:22 437.345
GONETS M04 25 Jun 05:39:21 05:47:40 46° 75° (ENE) 05:55:57
AO-7 25 Jun 05:46:11 05:54:13 52° 296° (WNW) 06:02:12 29.400- 29.500
NOAA 18 25 Jun 05:46:51 05:48:26 11° 89° (E) 05:50:02 137.9125
STARS 25 Jun 05:47:32 05:48:58 11° 269° (W) 05:50:25 437.465
BEESAT 2 25 Jun 05:58:59 06:00:11 11° 319° (NW) 06:01:23 435.950
NOAA 15 25 Jun 06:00:23 06:04:10 20° 93° (E) 06:07:55 137.62
AIST 2 25 Jun 06:03:54 06:07:58 64° 119° (ESE) 06:12:04 435.215
HORYU 2 25 Jun 06:18:04 06:22:26 52° 287° (WNW) 06:26:47 437.375
Cubesat XI-IV 25 Jun 06:22:41 06:26:58 24° 94° (E) 06:31:12 437.490
Cosmos 2499 25 Jun 06:23:41 06:32:25 58° 78° (ENE) 06:40:39 435.465 / 435.565
LilacSat-2 25 Jun 06:24:31 06:27:22 19° 94° (E) 06:30:12 437.200
CUSAT 1 25 Jun 06:34:59 06:39:09 16° 84° (E) 06:43:06 437.405
AO-85 25 Jun 06:36:33 06:40:10 22° 45° (NE) 06:43:32 145.980
BRITE-PL 25 Jun 06:39:26 06:43:24 41° 98° (E) 06:47:20 437.365/2234.400
CUTE-I 25 Jun 06:57:40 07:02:54 50° 100° (E) 07:08:06 437.470
STRAND 1 25 Jun 06:59:49 07:04:48 54° 72° (ENE) 07:09:50 437.568
DOVE 4 25 Jun 07:16:06 07:19:24 21° 95° (E) 07:22:47 437.250
PRISM 25 Jun 07:17:40 07:18:31 11° 62° (ENE) 07:19:24 437.425
NOAA 18 25 Jun 07:24:11 07:29:46 88° 284° (WNW) 07:35:19 137.9125
HO-68 25 Jun 07:32:11 07:35:59 15° 89° (E) 07:39:45 435.675
GOMX 1 25 Jun 07:33:04 07:37:15 75° 102° (ESE) 07:41:32 467.674
GONETS M04 25 Jun 07:36:31 07:44:16 38° 274° (W) 07:52:03
NOAA 15 25 Jun 07:39:08 07:44:12 49° 289° (WNW) 07:49:12 137.62
AO-7 25 Jun 07:42:39 07:45:02 11° 317° (NW) 07:47:26 29.400- 29.500
AIST 2 25 Jun 07:44:28 07:46:53 15° 317° (NW) 07:49:17 435.215
CUTE 1.7 + AOD 2 25 Jun 07:50:23 07:52:03 12° 90° (E) 07:53:42 437.475
LilacSat-2 25 Jun 07:58:20 08:01:40 28° 289° (WNW) 08:05:00 437.200
DANDE 25 Jun 07:59:01 08:06:28 38° 89° (E) 08:13:44 436.750
SEEDS 25 Jun 08:01:53 08:03:12 11° 90° (E) 08:04:32 437.485
Cubesat XI-IV 25 Jun 08:02:06 08:07:11 43° 290° (WNW) 08:12:14 437.490
CUSAT 1 25 Jun 08:12:29 08:20:30 83° 99° (E) 08:27:34 437.405
PHONESAT 2.4 25 Jun 08:12:30 08:14:57 22° 153° (SSE) 08:17:25 2401.200-2431.200
AO-85 25 Jun 08:16:37 08:20:49 40° 245° (WSW) 08:24:39 145.980
Cosmos 2499 25 Jun 08:17:40 08:24:56 30° 277° (W) 08:31:55 435.465 / 435.565
BRITE-PL 25 Jun 08:19:10 08:21:33 15° 295° (WNW) 08:23:57 437.365/2234.400
CUTE-I 25 Jun 08:38:35 08:42:34 21° 296° (WNW) 08:46:32 437.470
CINEMA 3 25 Jun 08:39:31 08:43:54 52° 100° (E) 08:48:28 145.822/145.860
STRAND 1 25 Jun 08:40:57 08:44:18 17° 268° (W) 08:47:40 437.568
PRISM 25 Jun 08:49:07 08:53:15 69° 258° (WSW) 08:57:25 437.425
AAUSAT CUBESAT 2 25 Jun 08:50:30 08:53:50 23° 95° (E) 08:57:08 437.432
DOVE 4 25 Jun 08:53:22 08:57:07 31° 289° (WNW) 09:01:02 437.250
CUBEBUG 2 25 Jun 09:03:07 09:07:07 29° 96° (E) 09:11:10 437.445
CANX-2 25 Jun 09:03:08 09:07:28 84° 283° (WNW) 09:11:44 2200.000
AUBIESAT-1 25 Jun 09:04:09 09:06:10 14° 99° (E) 09:08:16 437.475
NOAA 18 25 Jun 09:07:16 09:09:35 13° 302° (WNW) 09:11:54 137.9125
ANTELSAT 25 Jun 09:10:41 09:12:21 12° 62° (ENE) 09:14:01 437.575/2403.000
HO-68 25 Jun 09:17:19 09:24:33 89° 106° (ESE) 09:31:46 435.675
COMPASS 1 25 Jun 09:20:04 09:24:15 65° 100° (E) 09:28:24 437.405
CUTE 1.7 + AOD 2 25 Jun 09:24:01 09:28:13 55° 286° (WNW) 09:32:23 437.475
SEEDS 25 Jun 09:35:05 09:39:16 58° 286° (WNW) 09:43:24 437.485
DELFI C3 25 Jun 09:35:48 09:37:21 12° 91° (E) 09:38:55 145.870
M-CUBED/EXP-1 PRIME 25 Jun 09:38:39 09:42:17 42° 105° (ESE) 09:46:12 437.505
DANDE 25 Jun 09:41:02 09:49:06 51° 285° (WNW) 09:56:55 436.750
ZACube-1 25 Jun 09:46:14 09:50:28 38° 98° (E) 09:54:43 437.345
PHONESAT 2.4 25 Jun 09:48:15 09:51:19 77° 169° (SSE) 09:54:24 2401.200-2431.200
CUSAT 1 25 Jun 09:57:38 10:03:05 20° 292° (WNW) 10:08:06 437.405
UWE-3 25 Jun 09:58:17 10:02:51 79° 101° (ESE) 10:07:30 435.000/436.395/437.385
HUMSAT D 25 Jun 09:59:22 10:00:36 11° 90° (E) 10:01:50 437.325/437.525
TIGRISAT 25 Jun 10:00:47 10:04:44 39° 71° (ENE) 10:08:47 435.000
Oscar 11 25 Jun 10:03:40 10:08:00 63° 101° (E) 10:12:18 145.826/435.025
UNISAT 6 25 Jun 10:04:27 10:08:32 46° 72° (ENE) 10:12:42 437.425
FUNcube-1 25 Jun 10:05:48 10:10:16 59° 100° (E) 10:14:47 145.935
ISS 25 Jun 10:10:38 10:13:51 65° 140° (SE) 10:17:06 145.825
CINEMA 3 25 Jun 10:18:02 10:20:40 16° 294° (WNW) 10:23:21 145.822/145.860
AAUSAT CUBESAT 2 25 Jun 10:25:43 10:29:17 28° 290° (WNW) 10:32:49 437.432
RS-15 25 Jun 10:25:55 10:30:30 13° 94° (E) 10:35:08 29.354- 29.394
AUBIESAT-1 25 Jun 10:37:06 10:40:46 45° 291° (WNW) 10:44:41 437.475
CUBEBUG 2 25 Jun 10:39:47 10:43:37 27° 291° (WNW) 10:47:31 437.445
ANTELSAT 25 Jun 10:44:16 10:48:29 62° 259° (W) 10:52:49 437.575/2403.000
COMPASS 1 25 Jun 10:58:05 10:59:15 11° 297° (WNW) 11:00:24 437.405
Cosmos 2491 25 Jun 11:01:15 11:07:48 23° 66° (ENE) 11:14:18 435.465 / 435.565
NANOSAT C BR1 25 Jun 11:06:09 11:09:55 34° 71° (ENE) 11:13:42 145.865
BUGSAT 1 25 Jun 11:06:39 11:08:51 14° 65° (ENE) 11:11:02 437.445
HO-68 25 Jun 11:06:46 11:11:19 18° 305° (NW) 11:15:54 435.675
QB50P1 25 Jun 11:06:50 11:10:41 36° 71° (ENE) 11:14:33 145.935-145.965
DELFI C3 25 Jun 11:08:37 11:12:29 48° 287° (WNW) 11:16:19 145.870
POPSAT HIP 1 25 Jun 11:09:38 11:13:31 39° 71° (ENE) 11:17:25 437.405
M-CUBED/EXP-1 PRIME 25 Jun 11:14:22 11:16:35 15° 298° (WNW) 11:18:52 437.505
PCSat 25 Jun 11:19:12 11:23:37 24° 49° (NE) 11:27:59 145.827
JAS-2 25 Jun 11:20:10 11:25:52 24° 62° (ENE) 11:31:14 435.910
QB50P2 25 Jun 11:20:43 11:24:49 57° 74° (ENE) 11:28:57 145.880/145.840
ZACube-1 25 Jun 11:23:09 11:26:29 21° 293° (WNW) 11:29:51 437.345
POLYITAN 1 25 Jun 11:23:20 11:27:26 58° 74° (ENE) 11:31:34 437.675
PHONESAT 2.4 25 Jun 11:24:53 11:27:59 82° 5° (N) 11:31:04 2401.200-2431.200
DUCHIFAT 1 25 Jun 11:28:13 11:32:18 58° 74° (ENE) 11:36:24 145.980
HUMSAT D 25 Jun 11:32:20 11:36:36 61° 286° (WNW) 11:40:51 437.325/437.525
DANDE 25 Jun 11:32:58 11:33:39 10° 303° (WNW) 11:34:19 436.750
UWE-3 25 Jun 11:37:31 11:38:41 11° 298° (WNW) 11:39:51 435.000/436.395/437.385
TIGRISAT 25 Jun 11:38:48 11:41:36 17° 268° (W) 11:44:26 435.000
VELOX 1 25 Jun 11:39:24 11:42:01 15° 92° (E) 11:44:37 145.980
CUBEBUG 1 25 Jun 11:41:00 11:43:55 17° 93° (E) 11:46:48 437.445
Oscar 11 25 Jun 11:41:48 11:43:34 12° 297° (WNW) 11:45:21 145.826/435.025
UNISAT 6 25 Jun 11:43:08 11:45:31 15° 269° (W) 11:47:56 437.425
FUNcube-1 25 Jun 11:43:40 11:46:02 14° 296° (WNW) 11:48:23 145.935
ISS 25 Jun 11:48:01 11:50:34 20° 338° (NNW) 11:53:07 145.825
ESTCUBE 1 25 Jun 11:58:59 12:03:17 42° 99° (E) 12:07:31 437.505/2401.250
BEESAT 3 25 Jun 12:06:08 12:09:48 35° 52° (NE) 12:13:27 437.485
AISAT 25 Jun 12:18:30 12:22:43 44° 100° (E) 12:26:54 437.250
RS-15 25 Jun 12:29:12 12:40:22 68° 115° (ESE) 12:52:11 29.354- 29.394
Oscar 19 25 Jun 12:32:02 12:36:05 24° 65° (ENE) 12:40:07 437.125/150
BEESAT 2 25 Jun 12:36:31 12:40:19 41° 54° (NE) 12:44:06 435.950
UKube-1 25 Jun 12:38:55 12:43:02 43° 99° (E) 12:47:08 .
BUGSAT 1 25 Jun 12:40:01 12:43:52 43° 261° (W) 12:47:42 437.445
NANOSAT C BR1 25 Jun 12:42:48 12:45:44 18° 266° (W) 12:48:41 145.865
YUBILEINY 25 Jun 12:42:55 12:50:52 42° 87° (E) 12:58:51 435.215
QB50P1 25 Jun 12:43:47 12:46:35 17° 267° (W) 12:49:24 145.935-145.965
50 SAT 25 Jun 12:46:45 12:50:27 71° 284° (WNW) 12:54:06 437.505
POPSAT HIP 1 25 Jun 12:46:47 12:49:27 16° 267° (W) 12:52:07 437.405
SPROUT 25 Jun 12:47:39 12:51:39 38° 98° (E) 12:55:39 437.525
DX 1 25 Jun 12:51:39 12:56:00 78° 102° (ESE) 13:00:20 434.975-435.025
Cosmos 2491 25 Jun 12:56:51 13:05:32 76° 266° (W) 13:14:12 435.465 / 435.565
QB50P2 25 Jun 12:59:40 13:00:58 11° 269° (W) 13:02:16 145.880/145.840
PHONESAT 2.4 25 Jun 13:01:35 13:04:31 41° 201° (SSW) 13:07:27 2401.200-2431.200
PCSat 25 Jun 13:02:02 13:07:17 51° 247° (WSW) 13:12:30 145.827
JAS-2 25 Jun 13:02:29 13:10:17 74° 258° (WSW) 13:17:30 435.910
POLYITAN 1 25 Jun 13:02:30 13:03:35 11° 270° (W) 13:04:42 437.675
DUCHIFAT 1 25 Jun 13:07:18 13:08:20 11° 270° (W) 13:09:23 145.980
VELOX 1 25 Jun 13:14:30 13:18:42 45° 288° (WNW) 13:22:53 145.980
CUBEBUG 1 25 Jun 13:16:19 13:20:20 38° 289° (WNW) 13:24:20 437.445
O/OREOS (USA 219) 25 Jun 13:26:15 13:30:43 66° 66° (ENE) 13:35:10 437.305
ISS 25 Jun 13:27:01 13:28:00 11° 358° (N) 13:28:59 145.825
ESTCUBE 1 25 Jun 13:36:40 13:39:45 18° 295° (WNW) 13:42:49 437.505/2401.250
BEESAT 3 25 Jun 13:44:25 13:47:14 19° 249° (WSW) 13:50:02 437.485
AISAT 25 Jun 13:56:00 13:58:50 17° 295° (WNW) 14:01:38 437.250
Gurwin Techsat 1B 25 Jun 13:57:43 14:02:57 65° 73° (ENE) 14:08:14 435.225
Oscar 19 25 Jun 14:10:18 14:15:08 41° 261° (W) 14:20:00 437.125/150
Cosmos 2504 25 Jun 14:12:23 14:19:53 47° 88° (E) 14:27:57 435.465 / 435.565
BEESAT 2 25 Jun 14:15:17 14:17:49 16° 250° (WSW) 14:20:20 435.950
UKube-1 25 Jun 14:15:58 14:18:44 17° 295° (WNW) 14:21:28 .
TISAT 1 25 Jun 14:21:16 14:25:27 73° 284° (WNW) 14:29:38 437.305
SPROUT 25 Jun 14:24:22 14:27:19 18° 294° (WNW) 14:30:16 437.525
ITAMSAT 1 25 Jun 14:24:42 14:29:35 42° 70° (ENE) 14:34:30 435.822/435.867
AIST 2 25 Jun 14:25:57 14:29:46 34° 52° (NE) 14:33:35 435.215
DX 1 25 Jun 14:31:19 14:31:33 10° 299° (WNW) 14:31:46 434.975-435.025
YUBILEINY 25 Jun 14:39:30 14:47:34 42° 286° (WNW) 14:55:47 435.215
SWISSCUBE 25 Jun 14:41:08 14:45:31 34° 97° (E) 14:49:51 437.505
RS-15 25 Jun 14:42:57 14:53:40 41° 320° (NW) 15:04:56 29.354- 29.394
AO-7 25 Jun 14:51:52 14:59:40 47° 63° (ENE) 15:07:30 29.400- 29.500
JAS-2 25 Jun 14:53:04 14:56:05 13° 273° (W) 14:59:04 435.910
Cosmos 2491 25 Jun 14:57:17 15:00:45 13° 285° (WNW) 15:04:14 435.465 / 435.565
ISS 25 Jun 15:03:18 15:05:30 17° 18° (NNE) 15:07:42 145.825
ITUPSAT 1 25 Jun 15:05:14 15:09:58 54° 100° (E) 15:14:40 437.325
BEESAT 25 Jun 15:06:36 15:11:20 57° 101° (E) 15:16:02 436.000
O/OREOS (USA 219) 25 Jun 15:08:26 15:09:30 11° 263° (W) 15:10:33 437.305
Gurwin Techsat 1B 25 Jun 15:40:22 15:43:20 15° 269° (W) 15:46:19 435.225
HORYU 2 25 Jun 15:41:22 15:43:26 13° 63° (ENE) 15:45:29 437.375
STARS 25 Jun 16:00:15 16:01:39 11° 91° (E) 16:03:02 437.465
AIST 2 25 Jun 16:04:51 16:08:03 22° 248° (WSW) 16:11:14 435.215
ITAMSAT 1 25 Jun 16:05:09 16:09:11 23° 266° (W) 16:13:16 435.822/435.867
Cosmos 2504 25 Jun 16:06:13 16:13:26 36° 289° (WNW) 16:21:11 435.465 / 435.565
MOZHAYETS 4 25 Jun 16:17:17 16:21:32 34° 97° (E) 16:25:44
SWISSCUBE 25 Jun 16:19:15 16:23:07 25° 293° (WNW) 16:26:58 437.505
